Home > Weather > Kingston > Past weeks

Flag for Norfolk Island Weather for the Past 2 Weeks in Kingston, Norfolk Island

Now
68 °F

Passing clouds.


Feels Like: 68 °F
Forecast: 67 / 74 °F
Wind: 10 mph from East

Location: Norfolk Island Airport

Current Time: May 1, 2016 at 4:12:02 AM

Latest Report: May 1, 2016 at 3:00 AM


Visibility: N/A

Pressure: 30.21 "Hg

Humidity: 73%

Dew Point: 59 °F

Location of KingstonLocation

Historic Weather in Kingston — Graph

°F

Kingston Temperature Yesterday

Maximum temperature yesterday: 73 °F (at 10:04 AM)
Minimum temperature yesterday: 68 °F (at 12:00 AM)
Average temperature yesterday: 69 °F

High & Low Weather Summary for the Past Weeks

 TemperatureHumidityPressure
High77 °F (Apr 24, 11:30 AM)100% (Apr 24, 6:00 PM)30.30 "Hg (Apr 24, 6:00 PM)
Low64 °F (Apr 25, 12:00 AM)53% (Apr 27, 6:30 AM)29.86 "Hg (Apr 24, 2:00 PM)
Average70 °F78%30.11 "Hg
* Reported Apr 16 3:00 AM — May 1 3:00 AM, Kingston, Weather by CustomWeather, © 2016

Note: Actual official high and low records may vary slightly from our data, if they occured in-between our weather recording intervals... More about our weather records

Advertising

Kingston Weather History for the Previous 24 Hours

Scroll right to see more
 ConditionsComfort  
Time TempWeatherWind HumidityBarometerVisibility
3:00 AM
Sun, May 1
68 °FPassing clouds.10 mph73%30.21 "HgN/A
2:30 AM68 °FClear.10 mph73%30.21 "HgN/A
2:00 AM66 °FClear.9 mph78%30.24 "HgN/A
1:30 AM68 °FClear.10 mph69%30.24 "HgN/A
1:00 AM68 °FClear.10 mph69%30.24 "HgN/A
12:00 AM68 °FPassing clouds.14 mph73%30.24 "HgN/A
11:30 PM
Sat, Apr 30
68 °FClear.13 mph73%30.24 "HgN/A
11:00 PM68 °FPassing clouds.13 mph73%30.24 "HgN/A
10:00 PM70 °FOvercast.12 mph69%30.24 "HgN/A
9:30 PM68 °FPassing clouds.13 mph73%30.24 "HgN/A
9:00 PM68 °FPassing clouds.13 mph73%30.27 "HgN/A
8:30 PM68 °FPassing clouds.16 mph73%30.24 "HgN/A
8:00 PM68 °FPassing clouds.15 mph73%30.24 "HgN/A
7:00 PM68 °FPassing clouds.12 mph78%30.24 "HgN/A
6:00 PM70 °FOvercast.15 mph73%30.24 "HgN/A
5:00 PM70 °FPassing clouds.15 mph73%30.21 "HgN/A
4:00 PM70 °FBroken clouds.14 mph78%30.21 "HgN/A
3:00 PM72 °FOvercast.15 mph78%30.21 "HgN/A
2:00 PM73 °FPartly sunny.16 mph74%30.21 "HgN/A
1:00 PM72 °FOvercast.20 mph78%30.21 "HgN/A
12:00 PM73 °FBroken clouds.17 mph74%30.24 "HgN/A
11:30 AM72 °FScattered clouds.18 mph78%30.24 "HgN/A
10:30 AM73 °FOvercast.15 mph78%30.27 "HgN/A
10:04 AM73 °FPartly sunny.16 mph78%30.27 "HgN/A
9:00 AM72 °FPartly sunny.15 mph78%30.27 "HgN/A
8:00 AM70 °FPartly sunny.12 mph88%30.27 "HgN/A
7:30 AM70 °FSunny.14 mph83%30.27 "HgN/A
7:00 AM68 °FSunny.13 mph88%30.24 "HgN/A
6:00 AM68 °FScattered clouds.12 mph88%30.24 "HgN/A
5:30 AM68 °FSunny.10 mph88%30.24 "HgN/A
5:02 AM68 °FPassing clouds.12 mph88%30.24 "HgN/A
4:30 AM68 °FPartly cloudy.13 mph94%30.24 "HgN/A
4:04 AM68 °FPartly cloudy.13 mph88%30.24 "HgN/A
Weather by CustomWeather, © 2016

See weather overviewHow to use our weather pages